Location: Unspecified
(0.0000°N, 0.0000°E)
Time: 22:59:49
(UTC+00:00)

Vanguard 1 - Pass Details

Date: 03 October 2020
Orbit: 649 x 3833 km, 34.3° (Epoch: 28 October)

Event Time Altitude Azimuth Distance (km) Brightness Sun altitude
Rises 04:52:24 0° 295° (WNW) 3,571 - -14.1°
Reaches altitude 10° 04:54:31 10° 290° (WNW) 2,849 - -13.6°
Exits shadow 04:55:34 16° 287° (WNW) 2,519 11.5 -13.3°
Maximum altitude 05:01:22 59° 212° (SSW) 1,701 11.1 -11.9°
Drops below altitude 10° 05:14:10 10° 135° (SE) 5,124 14.5 -8.7°
Sets 05:19:26 0° 132° (SE) 6,652 15.2 -7.4°
